Cocoa Beach, FL

4:05 PM EST on February 18, 2018 (GMT -0500)
Patrick Air Force Base

Weather History for KCOF - April, 2013

Change the Weather History Date:

Sunday, April 21, 2013

  Actual Average Record
Temperature  
Mean Temperature 73 °F -  
Max Temperature 79 °F 78 °F 86 °F (2002)
Min Temperature 67 °F 65 °F 60 °F (1997)
Cooling Degree Days 8    
Growing Degree Days 23 (Base 50)    
Moisture  
Dew Point 68 °F    
Average Humidity 85    
Maximum Humidity 94    
Minimum Humidity 72    
Precipitation  
Precipitation 0.02 in - - ()
Sea Level Pressure  
Sea Level Pressure 30.10 in    
Wind  
Wind Speed 12 mph (NE)    
Max Wind Speed 17 mph    
Max Gust Speed 16 mph    
Visibility 10 miles    
Events Rain    
Averages and records for this station are not official NWS values.
T = Trace of Precipitation, MM = Missing Value Source: NWS Daily Summary

Daily Weather History Graph

Daily Weather History Graph

Search for Another Location

Airport or City:

Trip Planner

Search our weather history database for the weather conditions in past years. The results will help you decide how hot, cold, wet, or windy it might be!

Date:

Astronomy

Apr. 21, 2013 Rise Set
Actual Time 6:51 AM EDT 7:51 PM EDT
Civil Twilight 6:26 AM EDT 8:15 PM EDT
Nautical Twilight 5:57 AM EDT 8:44 PM EDT
Astronomical Twilight 5:28 AM EDT 9:14 PM EDT
Moon 3:55 PM EDT (4/21) 3:50 AM EDT (4/21)
Length of Visible Light 13h 49m
Length of Day
13h 00m
Waxing Gibbous, 79% of the Moon is Illuminated
Apr 21
Waxing Gibbous
Apr 25
Full
May 2
Last Quarter
May 9
New
May 18
First Quarter

Hourly Weather History & Observations

Time (EDT) Temp. Dew Point Humidity Pressure Visibility Wind Dir Wind Speed Gust Speed Precip Events Conditions
12:23 AM 68.0 °F 60.8 °F 78% 30.13 in 10.0 mi North 12.7 mph - N/A   Overcast
12:58 AM 67.5 °F 61.3 °F 81% 30.14 in 10.0 mi NNW 15.0 mph - N/A   Overcast
1:38 AM 68.0 °F 60.8 °F 78% 30.11 in 10.0 mi NNW 12.7 mph - N/A Rain Light Rain
1:52 AM 68.0 °F 62.6 °F 83% 30.11 in 10.0 mi NNW 11.5 mph - N/A   Overcast
1:58 AM 67.1 °F 62.4 °F 85% 30.12 in 10.0 mi NNW 11.5 mph - 0.00 in   Overcast
2:54 AM 68.0 °F 62.6 °F 83% 30.08 in 10.0 mi North 11.5 mph - N/A   Mostly Cloudy
2:58 AM 68.0 °F 62.6 °F 83% 30.08 in 10.0 mi North 10.4 mph - N/A   Mostly Cloudy
3:21 AM 69.8 °F 62.6 °F 78% 30.07 in 10.0 mi North 13.8 mph - N/A   Overcast
3:58 AM 69.8 °F 62.6 °F 78% 30.09 in 10.0 mi North 8.1 mph - N/A   Overcast
4:16 AM 69.8 °F 64.4 °F 83% 30.07 in 10.0 mi North 9.2 mph - N/A Rain Light Rain
4:58 AM 69.3 °F 64.8 °F 86% 30.09 in 10.0 mi NW 11.5 mph - 0.00 in   Light Drizzle
5:33 AM 68.0 °F 64.4 °F 88% 30.08 in 10.0 mi NW 11.5 mph - N/A Rain Light Rain
5:48 AM 68.0 °F 64.4 °F 88% 30.07 in 9.0 mi NW 12.7 mph 16.1 mph N/A Rain Light Rain
5:53 AM 68.0 °F 64.4 °F 88% 30.07 in 10.0 mi NW 13.8 mph - N/A Rain Light Rain
5:58 AM 68.2 °F 64.9 °F 89% 30.09 in 10.0 mi NW 17.3 mph - 0.02 in Rain Light Rain
6:00 AM 68.0 °F 64.4 °F 88% 30.07 in 10.0 mi NNW 15.0 mph - N/A   Mostly Cloudy
6:58 AM 69.4 °F 67.1 °F 92% 30.11 in 10.0 mi North 12.7 mph - 0.00 in   Mostly Cloudy
7:08 AM 69.8 °F 68.0 °F 94% 30.09 in 10.0 mi North 12.7 mph - N/A   Mostly Cloudy
7:53 AM 71.6 °F 68.0 °F 88% 30.10 in 10.0 mi NNE 11.5 mph - N/A   Overcast
7:58 AM 71.6 °F 68.0 °F 88% 30.12 in 10.0 mi NNE 13.8 mph - N/A   Overcast
8:03 AM 71.6 °F 69.8 °F 94% 30.10 in 10.0 mi NE 16.1 mph - N/A   Overcast
8:08 AM 71.6 °F 69.8 °F 94% 30.10 in 10.0 mi NE 15.0 mph - N/A   Overcast
8:13 AM 71.6 °F 69.8 °F 94% 30.10 in 10.0 mi NE 15.0 mph - N/A   Overcast
8:18 AM 71.6 °F 69.8 °F 94% 30.10 in 10.0 mi NE 13.8 mph - N/A   Overcast
8:23 AM 71.6 °F 69.8 °F 94% 30.11 in 10.0 mi NE 16.1 mph - N/A   Overcast
8:28 AM 71.6 °F 68.0 °F 88% 30.11 in 10.0 mi NE 12.7 mph - N/A   Overcast
8:33 AM 71.6 °F 69.8 °F 94% 30.11 in 10.0 mi NE 13.8 mph - N/A   Overcast
8:38 AM 71.6 °F 69.8 °F 94% 30.11 in 10.0 mi ENE 15.0 mph - N/A   Overcast
8:48 AM 71.6 °F 68.0 °F 88% 30.11 in 10.0 mi NE 15.0 mph - N/A   Overcast
8:58 AM 71.2 °F 68.5 °F 91% 30.12 in 10.0 mi ENE 12.7 mph - N/A   Overcast
9:08 AM 71.6 °F 68.0 °F 88% 30.10 in 10.0 mi ENE 13.8 mph - N/A   Mostly Cloudy
9:58 AM 74.5 °F 69.8 °F 85% 30.14 in 10.0 mi NE 12.7 mph - N/A   Clear
10:38 AM 77.0 °F 69.8 °F 78% 30.11 in 10.0 mi NE 16.1 mph - N/A   Mostly Cloudy
10:58 AM 77.0 °F 70.3 °F 80% 30.14 in 10.0 mi ENE 16.1 mph - N/A   Mostly Cloudy
11:13 AM 77.0 °F 69.8 °F 78% 30.13 in 10.0 mi ENE 15.0 mph - N/A   Mostly Cloudy
11:43 AM 77.0 °F 69.8 °F 78% 30.13 in 10.0 mi ENE 12.7 mph - N/A   Mostly Cloudy
11:58 AM 76.3 °F 69.8 °F 80% 30.14 in 10.0 mi ENE 11.5 mph - N/A   Overcast
12:03 PM 77.0 °F 69.8 °F 78% 30.13 in 10.0 mi NE 12.7 mph - N/A   Overcast
12:08 PM 77.0 °F 69.8 °F 78% 30.13 in 10.0 mi ENE 11.5 mph - N/A   Overcast
12:48 PM 78.8 °F 71.6 °F 78% 30.13 in 10.0 mi ENE 12.7 mph - N/A   Mostly Cloudy
12:58 PM 79.0 °F 71.4 °F 78% 30.14 in 10.0 mi ENE 12.7 mph - N/A   Partly Cloudy
1:58 PM 78.4 °F 70.2 °F 76% 30.12 in 10.0 mi ENE 10.4 mph - N/A   Mostly Cloudy
2:08 PM 78.8 °F 69.8 °F 74% 30.10 in 10.0 mi East 12.7 mph - N/A   Overcast
2:28 PM 78.8 °F 69.8 °F 74% 30.09 in 10.0 mi East 10.4 mph - N/A   Mostly Cloudy
2:58 PM 78.3 °F 68.7 °F 72% 30.09 in 10.0 mi ENE 8.1 mph - N/A   Scattered Clouds
3:58 PM 77.4 °F 70.0 °F 78% 30.06 in 10.0 mi East 11.5 mph - N/A   Clear
4:58 PM 76.5 °F 69.4 °F 79% 30.03 in 10.0 mi ENE 11.5 mph - N/A   Clear
5:58 PM 75.6 °F 70.7 °F 85% 30.06 in 10.0 mi East 5.8 mph - N/A   Clear
6:58 PM 75.2 °F 71.2 °F 87% 30.06 in 10.0 mi East 6.9 mph - N/A   Partly Cloudy
7:58 PM 75.0 °F 70.0 °F 84% 30.09 in 10.0 mi SSE 3.5 mph - N/A   Scattered Clouds
8:33 PM 75.2 °F 69.8 °F 83% 30.07 in 10.0 mi ESE 3.5 mph - N/A   Light Drizzle
8:58 PM 74.7 °F 71.4 °F 90% 30.09 in 10.0 mi ESE 2.3 mph - 0.00 in   Light Drizzle
9:04 PM 75.2 °F 71.6 °F 89% 30.08 in 10.0 mi East 2.3 mph - N/A   Partly Cloudy
9:58 PM 74.5 °F 71.2 °F 90% 30.12 in 10.0 mi SW 4.6 mph - 0.00 in   Mostly Cloudy
10:58 PM 74.3 °F 70.9 °F 89% 30.11 in 10.0 mi WSW 4.6 mph - N/A   Overcast
11:58 PM 73.2 °F 70.5 °F 91% 30.09 in 10.0 mi WNW 8.1 mph - N/A   Partly Cloudy